www.pogodaiklimat.ru

Погода и климат >> Архив погоды >> Россия >> Приморский край >> Свиягино


АРХИВ ПОГОДЫ в Свиягино

Время (UTC), дата Ветер
(напр.,м/с)
 
Видим.   Явления Облачность Т
(С)
Тd
(С)
f
(%)
Тe
(С)
Тes
(С)
Комфортность P
(гПа)
Po
(гПа)
Тmin
(С)
Tmax
(С)
R
(мм)
R24
(мм)
S
(см)
09 13.09 ЮЗ 3 20 км 8/0
[Ac trans Ci sp]
+19.2 +10.6 57 +20 +20 1012.2 1000.5 +23.1
12 13.09 Ю 3 20 км 9/3 600 м
[Cb cap Ac trans Ci sp]
+16.6 +10.6 68 +16 +16 1011.8 1000.0
15 13.09 Ю 2 10 км слаб. ливневой дождь 10 баллов +15.1 +9.9 71 +15 +15 1010.4 998.7
18 13.09 Ю 1 10 км слаб. ливневой дождь 10 баллов +13.6 +12.2 91 +14 +14 1010.5 998.7
21 13.09 ЮЗ 3 10 км слаб. ливневой дождь 10/10 600 м
[Cb cap]
+15.4 +14.5 94 +15 +15 1009.7 997.9 +13.5 6
00 14.09 С 2 10 км слаб. ливневой дождь 10/10 600 м
[Cb cap]
+14.7 +13.9 95 +14 +14 1011.6 999.8
03 14.09 С 2 20 км 10 баллов +17.9 +13.2 74 +18 +18 1012.9 1001.3
06 14.09 СЗ 3 20 км 4 балла +20.4 +13.6 65 +23 +26 комфорт 1011.5 1000.0
09 14.09 СВ 1 20 км ясно +18.1 +11.0 63 +19 +19 1012.4 1000.6 +20.5 3
12 14.09 Ю 1 20 км ясно +9.8 +9.2 96 +9 +9 1016.0 1004.0
15 14.09 Ю 1 20 км ясно +8.9 +8.4 97 +8 +8 1016.0 1004.0
18 14.09 Ю 2 20 км ясно +7.1 +6.7 97 +5 +5 1016.1 1004.0
21 14.09 Ю 1 20 км ясно +5.8 +5.3 97 +4 +4 1016.3 1004.0 +5.8
00 15.09 штиль 0 50 км ясно +16.7 +11.1 70 +17 +24 1015.9 1004.1 +5.7
03 15.09 Ю 2 50 км ясно +21.9 +5.3 34 +22 +34 комфорт 1015.5 1004.0
06 15.09 В 1 50 км ясно +23.4 +5.3 31 +24 +31 комфорт 1012.7 1001.3
09 15.09 С 1 50 км 1/0
[Ci sp]
+19.3 +12.5 65 +22 +22 комфорт 1011.1 999.4 +24.6
12 15.09 Ю 2 20 км 6/0
[Ci sp]
+12.8 +12.0 95 +12 +12 1011.6 999.6
15 15.09 Ю 2 20 км 7 баллов +12.6 +7.7 72 +12 +12 1013.2 1001.3
18 15.09 Ю 3 20 км 2 балла +10.8 +7.5 80 +9 +9 1011.9 1000.0
21 15.09 Ю 1 50 км 1/0
[Ac trans]
+10.2 +6.5 78 +10 +10 1011.8 999.7 +10.2
00 16.09 З 2 50 км ясно +16.8 +11.5 71 +17 +22 1012.8 1001.0 +8.9
03 16.09 СЗ 4 50 км 2 балла +19.5 +12.5 64 +21 +27 комфорт 1014.3 1002.7
06 16.09 СЗ 5 50 км 6 баллов +19.1 +9.8 55 +20 +21 1014.3 1002.7
09 16.09 СЗ 1 20 км 1/0
[Ac trans]
+16.1 +8.6 61 +17 +17 1014.4 1002.7 +20.1
12 16.09 В 1 20 км 1/0
[Ac trans]
+8.6 +6.8 88 +8 +8 1015.9 1003.7
15 16.09 штиль 0 20 км 1 балл +5.2 +4.0 92 +4 +4 1019.0 1006.7
18 16.09 Ю 1 20 км 2 балла +3.8 +3.4 97 +2 +2 1019.0 1006.7
21 16.09 Ю 1 20 км ясно +2.1 +1.7 97 0 0 1018.6 1006.1 +2.1
00 17.09 ЮЗ 1 50 км ясно +13.2 +7.9 70 +13 +20 1018.4 1006.3
03 17.09 ЮЗ 1 50 км 1 балл +17.6 +2.3 36 +19 +31 опасность
простуды
1018.4 1006.7
06 17.09 З 1 50 км ясно +18.9 +3.9 37 +20 +28 1015.6 1004.0
09 17.09 СВ 1 20 км ясно +15.1 +7.1 59 +16 +16 1012.9 1001.1 +18.9
15 17.09 Ю 1 20 км ясно +6.1 +4.7 91 +5 +5 1010.8 998.7
18 17.09 Ю 3 20 км 6 баллов +10.2 +5.8 74 +8 +8 1007.9 996.0
21 17.09 З 4-10
{12}
20 км в посл. час ливневой дождь {гроза} 10/6 600 м
[Cb cap Ac und]
+10.3 +7.1 81 +8 +8 1009.8 997.8 +5.7 2
00 18.09 З 4
{12}
20 км {гроза, ливн. осадки} 10/4 600 м
[Cb cap Ac und]
+11.1 +4.9 66 +9 +10 1012.2 1000.2
03 18.09 СЗ 5
{14}
20 км {ливн. осадки} 9/3 600 м
[Cb cap Ac As]
+11.3 +1.3 50 +9 +11 1014.0 1001.9
06 18.09 СЗ 6-12
{14}
20 км в посл. час ливневой дождь 10/8 600 м
[Cb cap Ac und]
+11.4 -1.4 41 +9 +9 1014.6 1002.7
09 18.09 З 3
{13}
20 км в посл. час ливневой дождь 8/4 600 м
[Cb cap Ac trans]
+9.0 +2.8 65 +7 +7 1014.7 1002.7 +12.7 1
12 18.09 ЮЗ 3
{12}
20 км 10/3 600 м
[Cb cap Ac und]
+8.4 +2.4 66 +6 +6 1015.0 1002.8
15 18.09 З 3 20 км 10 баллов +9.0 +0.4 55 +7 +7 1014.7 1002.7
18 18.09 ЮЗ 5 20 км 7 баллов +6.1 +0.6 68 +2 +2 1013.5 1001.3
21 18.09 ЮЗ 4 20 км 3/0
[Ac trans]
+5.9 +0.9 70 +2 +2 1012.3 1000.0 +5.7
00 19.09 З 4-10
{11}
50 км 1/1 600 м
[Cu med, cong]
+12.1 -1.5 39 +11 +14 1012.4 1000.3
03 19.09 З 6-12
{14}
50 км 1/0
[Ac trans]
+13.8 -1.4 35 +12 +16 1012.6 1000.7
06 19.09 З 5 50 км ясно +15.6 -1.5 31 +15 +18 1013.1 1001.3
09 19.09 СЗ 3
{11}
50 км ясно +12.5 +2.1 49 +11 +11 1014.6 1002.7 +15.6
12 19.09 СЗ 2 20 км ясно +10.1 +1.7 56 +9 +9 1017.3 1005.3
15 19.09 СЗ 1 20 км ясно +7.6 +2.9 72 +7 +7 1017.4 1005.3
18 19.09 Ю 2 20 км ясно +3.8 +2.8 93 +1 +1 1019.0 1006.7
21 19.09 Ю 1 50 км ясно +4.1 +1.3 82 +3 +3 1019.0 1006.5 +3.5
00 20.09 З 2 50 км ясно +12.2 +5.2 62 +11 +16 1020.2 1008.1
03 20.09 СЗ 2 50 км 2 балла +16.0 +3.4 43 +16 +25 1021.1 1009.3
06 20.09 СЗ 2 20 км ясно +17.2 +2.4 37 +18 +23 1019.8 1008.0

 

Местоположение метеостанции Свиягино (Приморский край, Россия): широта 44.80 долгота 133.00 высота над уровнем моря 99 м.

В архиве по умолчанию представлена погода в Свиягино за последнюю неделю. Архивные данные за месяц целиком и за предыдущие месяцы, начиная с января 2011 года, Вы можете получить, выбрав интересующий диапазон дат из раскрывающегося списка и нажав кнопку "Ввод!".


*Определитесь, кто Вы:
робот инопланетянин человек

Внимание! Время в таблицах - всемирное. Для получения местного времени необходимо прибавить поправку, которая равна 10 ч.

Смотрите также архив погоды в соседних городах и на ближайших метеорологических станциях:

Погода в Спасск-Дальнем (Приморский край, Россия) (25 км)
Погода в Кировском (Приморский край, Россия) (52 км)
Погода в Лесозаводске (Приморский край, Россия) (78 км)
Погода в Астраханке (Приморский край, Россия) (79 км)
Погода в Хороле (Приморский край, Россия) (89 км)
Погода в Турьем Роге (Приморский край, Россия) (92 км)
Погода в Анучино (Приморский край, Россия) (92 км)
Погода в Чугуевке (Приморский край, Россия) (96 км)
Погода в Хулине (Хэйлунцзян, Китай) (108 км)
Погода в Малиново (Приморский край, Россия) (117 км)

Пояснения к столбцам:

Ветер - указаны скорость ветра в м/с - средняя за 10 мин, порывы в срок и между сроками (в фигурных скобках) и направление, откуда дует ветер: С - северный, СВ - северо-восточный, В - восточный, ЮВ - юго-восточный, Ю - южный, ЮЗ - юго-западный, З - западный, СЗ - северо-западный.
Видимость - горизонтальная дальность видимости в метрах или километрах. При видимости от 1 до 10 км при отсутствии осадков обычно наблюдается дымка, при ухудшении видимости до 1 км и менее - туман. В сухую погоду видимость может ухудшаться дымом, пылью или мглою.
Явления - указаны атмосферные явления, наблюдавшиеся в срок или в последний час перед сроком; фигурными скобками обозначены явления, наблюдавшиеся между сроками (за 1-3 часа до срока); квадратными скобками обозначены град или гололедные отложения с указанием их диаметра в мм.
Облачность - указаны через наклонную черту общая и нижняя облачность в баллах и высота нижней границы облаков в метрах; квадратными скобками обозначены формы облаков: Ci - перистые, Cs - перисто-слоистые, Cc - перисто-кучевые, Ac - высококучевые, As - высокослоистые, Sc - слоисто-кучевые, Ns - слоисто-дождевые, Cu - кучевые, Cb - кучево-дождевые. Подробнее классификацию облаков см. в Атласе облаков (PDF).
T - Температура воздуха - температура, измеренная на высоте 2 м над землей.
Td - Температура точки росы - температура, при понижении до которой содержащийся в воздухе водяной пар достигнет насыщения.
f - Относительная влажность воздуха - влажноcть воздуха, измеренная на высоте 2 м над землей.
Te - Эффективная температура - температура, которую ощущает одетый по сезону человек в тени. Характеристика душности погоды. При расчете учитывается влияние влажности воздуха и скорости ветра на теплоощущения человека.
Tes - Эффективная температура на солнце - температура, которую ощущает человек, с поправкой на солнечный нагрев. Характеристика знойности погоды. Зависит от высоты солнца над горизонтом, облачности и скорости ветра. Ночью, в пасмурную погоду, а также при ветре 12 м/с и более поправка равна нулю.
P - Атмосферное давление - приведенное к уровню моря атмосферное давление.
Po - Атмосферное давление - измеренное на уровне метеостанции атмосферное давление.
Tmin - Минимальная температура - минимум температуры воздуха на высоте 2 м над землей.
Tmax - Максимальная температура - максимум температуры воздуха на высоте 2 м над землей.
R - Количество осадков - Количество выпавших осадков за период времени, мм. При наведении курсора мыши на число - период времени, за который выпало указанное количество осадков.
R24 - Количество осадков - Количество выпавших осадков за 24 часа, мм.
S - Снежный покров - Высота снежного покрова, см. При наведении курсора мыши на число - состояние снежного покрова и степень покрытия местности в баллах.